Regional Weather Roundup
Issued by NWS Newport/Morehead, NC

Current Version | Previous Version | Graphics & Text | Print | Product List | Glossary Off
Versions: 1 2 3 4 5 6 7 8 9 10 11 12 13 14 15 16 17 18 19 20 21 22 23 24 25 26 27 28 29 30 31 32 33 34 35 36 37 38 39 40 41 42 43 44 45 46 47 48 49 50

280
ASUS42 KMHX 310813
RWRMHX
WEATHER ROUNDUP FOR EASTERN NORTH CAROLINA
NATIONAL WEATHER SERVICE NEWPORT/MOREHEAD CITY NC
400 AM EDT TUE MAY 31 2016

NOTE: "FAIR" INDICATES FEW OR NO CLOUDS BELOW 12,000 FEET
WITH NO SIGNIFICANT WEATHER AND/OR OBSTRUCTIONS TO VISIBILITY

NCZ015>017-031-032-045>047-102-103-310900-
NORTH COAST

CITY           SKY/WX    TMP DP  RH WIND       PRES   REMARKS
EDENTON        CLOUDY   N/A N/A N/A N3        29.92S
ELIZABETH CITY CLOUDY    70  69  97 N3        29.92S
KITTY HAWK     FOG       68  68 100 CALM      29.90F VSB 1/4
MANTEO         NOT AVBL

$$

NCZ045>047-081-094-103-104-310900-
CENTRAL COAST

CITY           SKY/WX    TMP DP  RH WIND       PRES   REMARKS
FRISCO         CLOUDY    70  69  97 CALM      29.91S

$$

NCZ095-097-098-100-101-310900-
SOUTHERN COAST

CITY           SKY/WX    TMP DP  RH WIND       PRES   REMARKS
BEAUFORT       MOCLDY    74  72  93 SE5       29.88F
CEDAR ISLAND   NOT AVBL
JACKSONVILLE   MOCLDY    72  70  93 N7        29.88R
PINEY ISLAND   CLOUDY   N/A N/A N/A E3        29.89
WILMINGTON     CLEAR     69  68  96 NE3       29.87S


$$

NCZ011>013-027>030-043-044-078>080-089-090>093-098-310900-
COASTAL PLAIN

CITY           SKY/WX    TMP DP  RH WIND       PRES   REMARKS
AHOSKIE        CLOUDY    68  68  99 CALM      29.93S
CLINTON        CLOUDY    71  71 100 NE5       29.91R FOG
ELIZABETHTOWN  CLOUDY    72  72 100 CALM      29.89S FOG
GOLDSBORO      NOT AVBL
GREENVILLE     HVY RAIN  70  70 100 N5        29.94S VSB 3/4
HAVELOCK       CLOUDY    72  70  93 CALM      29.90F
KENANSVILLE    FOG       70  70  99 CALM      29.91R VSB 3/4
KINSTON        FOG       70  70  99 NE6       29.92R VSB 1/4
NEW BERN       CLOUDY    71  70  96 NE5       29.91R
RICHLANDS      CLOUDY    71  71 100 N5        29.90R FOG
ROCKY MOUNT    CLOUDY    71  70  96 CALM      29.92S
WASHINGTON     FOG       68  68 100 CALM      29.92R VSB 1/2
WHITEVILLE     CLOUDY    70  69  96 CALM      29.88S FOG

$$

AMZ130-135-150-152-154-156-158-170-250-252-270-ANZ085-086-088-633-658-670-310900-
MARINE OBSERVATIONS

STATION/POSITION TIME  TEMP    WIND        PRES    WAVE   SWELL
                       AIR SEA DIR/SP/G            HT/PER HT/PER
                 (UTC) (F)     (DEG/KT/KT) (MB)    (FT/S) (FT/S)
CHESAPEAKE LIGHT 0700   69      40/  5/  5 1013.8
64 E VA BEACH    0750   67 64  310/  2/  4 1011.8    7/ 8   7/ 8
DUCK             0700   65 59   20/  5/  5 1012.4
2 E DUCK         0711      61                N/A     4/ 7
OREGON INLET     0700   69 73  120/  1/  2 1012.7
13E OREGON INLT  0800      65                N/A     5/ 7   5/ 7
HATTERAS CG      0700   72 74  240/  5/ 10 1012.3
DIAMOND BUOY     0750   79 80  200/ 14/ 16 1012.2    6/ 9   5/ 9
CAPE LOOKOUT     0800   75     140/  5/  5 1011.5
BEAUFORT LAB     0700   75 75  210/  6/  9 1011.5
30 SE NEW RVR IN 0725      76                N/A     5/ 8
27 SE WRIGHTSVLE 0708   76 76  150/  6/  8 1010.9
5 SE WRIGHTSVLE  0708   75 76  110/  6/  8 1011.8
225 S CAPE HAT   0750   75 76  150/ 12/ 14 1014.2    5/ 8   3/ 8
41 SE CHARLESTON 0750   75 77  270/ 19/ 23 1009.8    5/ 5   2/ 8

$$




USA.gov is the U.S. government's official web portal to all federal, state and local government web resources and services.